SCP
0 0 0 0 0 0 0 0 0 0 0 0 0 0 0 0 0 0 0 0 0 0 0 0 0 0 0 0 0 0 0 0 0 0 0 0 0 0 0 0 0 0 0
0 0 0 0 0 0 0 0 0 0 0 0 0 0 0 0 0 1 0 0 0 0 0 0 0 0 0 0 0 0 0 0 0 0 0 0 0 0 0 0 0 0 0
0 0 0 0 0 0 0 0 0 0 0 0 0 0 1 1 1 1 0 0 0 0 0 0 0 0 0 0 0 0 0 0 0 0 0 0 0 0 0 0 0 0 0
0 0 0 0 0 0 0 0 0 0 0 0 0 1 1 1 1 1 0 0 0 0 0 0 0 0 0 0 0 0 0 0 0 0 0 0 0 0 0 0 0 0 0
0 0 0 0 0 0 0 0 0 0 0 0 0 1 1 1 1 0 0 0 0 0 0 0 0 0 0 0 0 0 0 0 0 0 0 0 0 0 0 0 0 0 0
0 0 0 0 0 0 0 0 0 0 0 0 0 1 1 1 0 0 0 0 0 0 0 0 0 0 0 0 0 0 0 0 0 0 0 0 0 0 0 0 0 0 0
0 0 0 0 0 0 0 0 0 0 0 0 0 0 0 0 0 0 0 0 0 0 0 0 0 0 0 0 0 0 0 0 0 0 0 0 0 0 0 0 0 0 0
0 0 0 0 0 0 0 0 0 0 0 0 0 0 0 0 0 0 0 0 0 0 0 0 0 0 0 0 0 0 0 0 0 0 0 0 0 0 0 0 0 0 0
0 0 0 0 0 0 0 0 0 0 0 0 0 0 0 0 0 0 0 0 0 0 0 0 0 0 0 0 0 0 0 0 0 0 0 0 0 0 0 0 0 0 0
0 0 0 0 0 0 0 0 0 0 0 0 0 0 0 0 0 0 0 0 0 0 0 0 0 0 0 0 0 0 0 0 0 0 0 0 0 0 0 0 0 0 0
0 0 0 0 0 0 0 0 0 0 0 0 0 0 0 0 0 0 0 0 0 0 0 0 0 0 0 0 0 0 0 0 0 0 0 0 0 0 0 0 0 0 0
0 0 0 0 0 0 0 0 0 0 0 0 0 0 0 0 0 0 0 0 0 0 0 0 0 0 0 0 0 0 0 0 0 0 0 0 0 0 0 0 0 0 0
0 0 0 0 0 0 0 0 0 0 0 0 0 0 0 0 0 0 0 0 0 0 0 0 0 0 0 0 0 0 0 0 0 0 0 0 0 0 0 0 0 0 0
0 0 0 0 0 0 0 0 0 0 0 0 0 0 0 0 0 0 0 0 0 0 0 0 0 0 0 0 0 0 0 0 0 0 0 0 0 0 0 0 0 0 0
0 0 0 0 0 0 0 0 0 0 0 0 0 0 0 0 0 0 0 0 0 0 0 0 0 0 0 0 0 0 0 0 0 0 0 0 0 0 0 0 0 0 0
0 0 0 0 0 0 0 0 0 0 0 0 0 0 0 0 0 0 0 0 0 0 0 0 0 0 0 0 0 0 0 0 0 0 0 0 0 0 0 0 0 0 0
0 0 0 0 0 0 0 0 0 0 0 0 0 0 0 0 0 0 0 0 0 0 0 0 0 0 0 0 0 0 0 0 0 0 0 0 0 0 0 0 0 0 0
0 0 0 0 0 0 0 0 0 0 0 0 0 0 0 0 0 0 0 0 0 0 0 0 0 0 0 0 0 0 0 0 0 0 0 0 0 0 0 0 0 0 0
0 0 0 0 0 0 0 0 0 0 0 0 0 0 0 0 0 0 0 0 0 0 0 0 0 0 0 0 0 0 0 0 0 0 0 0 0 0 0 0 0 0 0
0 0 0 0 0 0 0 0 0 0 0 0 0 0 0 0 0 0 0 0 0 0 0 0 0 0 0 0 0 0 0 0 0 0 0 0 0 0 0 0 0 0 0
0 0 0 0 0 0 0 0 0 0 0 0 0 0 0 0 0 0 0 0 0 0 0 0 0 0 0 0 0 0 0 0 0 0 0 0 0 0 0 0 0 0 0
0 0 0 0 0 0 0 0 0 0 0 0 0 0 0 0 0 0 0 0 0 0 0 0 0 0 0 0 0 0 0 0 0 0 0 0 0 0 0 0 0 0 0
0 0 0 0 0 0 0 0 0 0 0 0 0 0 0 0 0 0 0 0 0 0 0 0 0 0 0 0 0 0 0 0 0 0 0 0 0 0 0 0 0 0 0
0 0 0 0 0 0 0 0 0 0 0 0 0 0 0 0 0 0 0 0 0 0 0 0 0 0 0 0 0 0 0 0 0 0 0 0 0 0 0 0 0 0 0
0 0 0 0 0 0 0 0 0 0 0 0 0 0 0 0 0 0 0 0 0 0 0 0 0 0 0 0 0 0 0 0 0 0 0 0 0 0 0 0 0 0 0
0 0 0 0 0 0 0 0 0 0 0 0 0 0 0 0 0 0 0 0 0 0 0 0 0 0 0 0 0 0 0 0 0 0 0 0 0 0 0 0 0 0 0
Wind_Speed
13 14 14 14 14 14 14 15 14 12 12 13 13 14 15 15 14 14 14 13 14 13 11 12 13 10 8 7 6 6 6 5 5 3 2 4 7 7 6 5 4 4 3
11 11 13 13 12 13 15 15 14 14 13 14 13 13 14 14 14 15 16 14 15 15 13 13 13 9 11 8 7 8 7 6 6 6 4 4 5 7 6 5 4 4 3
8 9 10 10 11 13 13 12 12 13 12 12 13 14 14 14 14 14 14 14 14 14 14 14 13 11 12 8 8 8 6 5 4 6 5 3 3 4 5 4 4 2 3
6 8 9 10 10 11 10 9 10 10 11 11 12 13 13 12 13 12 12 13 13 12 12 13 12 13 13 12 9 9 7 6 5 6 5 4 3 4 5 4 4 3 2
6 7 8 7 7 7 7 7 7 8 9 9 9 10 10 10 10 11 11 11 11 11 10 10 10 12 13 11 9 10 10 7 7 6 5 5 5 6 7 5 4 3 2
6 7 5 5 5 5 4 4 5 6 6 6 8 8 9 8 11 14 12 10 10 10 10 8 7 8 10 12 12 13 14 12 11 9 7 7 8 6 5 6 5 4 3
6 5 5 4 4 4 3 3 4 4 4 5 6 6 8 8 11 12 14 9 9 9 9 8 6 6 7 7 9 10 10 11 11 9 9 8 9 10 10 8 6 5 4
5 5 5 4 4 4 4 4 4 3 3 4 5 5 5 6 9 10 11 8 6 6 7 8 8 8 8 9 7 7 6 6 6 5 5 6 6 9 9 8 7 4 2
5 5 5 5 5 4 4 4 3 3 3 3 2 3 4 4 7 9 9 4 4 4 4 5 6 7 11 13 9 8 6 4 5 7 7 8 11 13 11 8 7 5 3
5 5 4 4 5 5 4 3 2 2 2 2 2 2 2 3 5 7 8 4 4 3 3 4 6 9 12 15 10 9 9 7 7 7 7 8 8 10 13 8 8 6 4
4 4 4 4 4 4 3 3 3 3 2 2 2 1 1 1 3 7 8 4 4 4 4 4 5 11 14 15 11 7 9 9 8 7 6 5 4 4 5 5 5 5 5
5 5 4 4 3 3 4 3 3 4 3 3 2 1 0 0 2 5 7 6 6 4 4 3 5 11 13 14 10 9 13 11 7 6 5 5 5 5 4 4 4 3 2
5 5 4 4 3 3 4 4 3 3 3 2 2 2 1 0 1 3 5 6 7 3 3 6 8 11 11 9 10 13 10 7 7 6 7 6 5 4 4 3 3 2 1
6 5 4 4 3 3 3 3 3 3 3 2 2 2 1 1 1 1 2 3 4 4 4 5 8 10 7 5 7 8 5 5 6 6 5 4 4 4 5 4 4 4 2
5 4 4 3 4 3 3 2 2 2 2 3 2 2 2 2 3 5 4 3 4 4 5 4 3 4 4 4 4 4 4 5 5 4 5 5 5 5 5 4 4 4 4
5 4 3 3 3 3 3 3 4 3 3 3 3 3 1 2 4 6 7 7 9 11 6 4 4 5 5 6 6 5 5 6 6 5 5 6 6 6 5 5 4 6 6
4 4 3 3 3 3 3 3 3 3 5 4 3 2 2 3 4 6 6 7 9 10 4 4 4 5 5 5 5 5 6 5 5 5 6 6 6 6 6 6 6 6 6
5 4 3 3 3 3 3 3 2 3 2 1 3 3 1 1 3 4 6 6 4 5 3 4 4 4 4 5 5 5 5 5 5 6 6 6 6 6 6 6 7 7 7
4 3 3 3 3 3 3 3 2 2 2 1 1 2 3 1 2 3 4 2 3 3 3 3 3 3 4 4 4 4 5 5 5 6 6 6 6 7 7 7 7 8 7
4 5 4 3 3 3 3 3 2 2 2 2 1 1 1 1 1 0 1 1 1 2 3 3 3 4 4 4 4 4 5 5 6 6 6 6 6 7 7 8 7 7 7
3 4 5 4 3 3 3 2 2 2 2 1 1 1 1 1 0 0 0 1 1 2 2 2 2 3 3 3 4 5 6 6 6 6 6 6 6 6 6 6 7 7 7
3 3 3 3 3 3 3 2 2 2 2 1 1 2 3 2 1 1 1 1 2 2 1 1 1 2 2 3 3 4 5 5 5 5 6 6 6 6 6 6 6 6 7
4 4 3 3 3 3 3 3 2 2 1 1 1 1 2 1 1 1 1 2 2 2 2 1 1 1 1 1 2 3 4 5 5 5 5 5 5 6 6 7 7 7 7
4 4 3 3 3 3 2 2 2 1 1 1 1 1 1 1 1 1 1 2 2 2 2 1 1 2 2 2 2 2 2 3 3 3 6 5 6 5 5 6 6 7 7
3 3 3 2 2 2 1 1 1 1 1 1 1 1 1 1 1 2 2 2 2 2 2 2 2 2 3 4 3 3 4 5 4 4 4 5 5 6 5 6 6 6 6
2 2 2 1 1 1 0 0 0 1 1 1 1 1 1 2 2 2 2 2 2 2 3 2 3 4 4 4 5 6 6 7 7 7 5 4 5 5 5 5 6 6 6
Wind_Direction
208 210 212 213 214 214 216 218 218 216 212 212 213 214 215 215 214 216 220 216 220 223 219 220 222 213 212 209 203 197 198 184 187 158 138 149 163 173 171 171 175 179 196
209 209 214 215 213 215 219 220 216 216 214 213 212 214 215 216 214 216 219 217 219 221 219 217 220 210 213 206 202 203 200 185 167 166 152 157 172 176 167 173 179 183 190
205 208 213 215 215 218 220 218 215 216 215 213 212 214 215 215 215 216 217 217 219 220 216 214 214 204 210 207 200 200 192 177 155 152 153 147 144 162 156 172 179 182 193
202 207 214 217 217 219 218 215 215 214 215 214 215 217 216 214 213 213 214 216 217 218 216 213 210 204 206 201 197 195 180 169 151 145 141 146 147 147 153 172 186 189 199
198 209 219 219 218 217 216 215 213 212 215 215 215 218 216 214 212 209 211 214 214 215 213 211 209 207 205 197 192 187 176 172 161 159 156 153 162 165 184 175 181 167 203
198 213 214 210 211 215 216 215 214 216 215 212 214 213 215 216 211 205 204 210 210 209 210 207 204 198 199 197 193 187 180 176 177 176 175 179 182 175 160 165 156 156 208
199 207 203 198 202 207 202 204 214 218 215 217 220 216 220 219 208 204 204 205 206 207 203 197 193 191 185 186 183 182 188 190 182 177 178 183 173 174 166 167 175 175 184
192 200 196 191 197 193 187 202 214 213 212 217 219 218 219 218 204 199 199 205 205 203 198 193 189 185 183 174 167 171 176 179 172 166 172 172 165 162 169 165 157 134 93
196 202 196 187 190 189 195 205 203 197 207 211 211 208 213 213 198 194 189 185 191 195 187 185 182 182 179 170 165 166 162 158 150 140 138 144 153 157 153 134 138 146 182
202 198 184 181 185 190 191 187 178 176 191 182 196 202 208 212 196 192 182 171 179 176 168 177 188 182 177 175 173 171 173 166 145 137 133 141 146 160 164 161 163 165 166
167 159 162 167 172 172 163 158 156 152 152 156 156 139 172 199 199 195 186 176 179 175 179 184 192 186 184 185 181 180 173 152 149 144 138 139 142 155 165 166 172 172 175
143 146 149 147 145 148 149 146 146 149 152 153 145 128 73 158 196 198 190 186 170 171 181 177 182 185 189 187 181 172 157 144 144 147 156 171 175 182 181 176 175 180 186
136 139 139 135 134 140 146 149 146 152 159 165 162 171 182 135 194 194 189 180 170 159 161 169 176 184 183 182 178 166 154 152 157 171 184 190 185 174 157 152 150 151 147
138 135 134 134 130 124 124 136 145 155 163 166 173 178 168 162 175 162 159 156 154 145 137 153 168 174 168 153 163 166 163 170 177 184 184 171 154 162 177 175 179 176 192
131 129 129 127 132 127 118 120 137 140 156 165 179 173 175 200 207 189 173 168 160 153 135 130 145 156 166 164 167 170 169 171 181 181 176 175 179 187 190 180 179 178 198
131 132 132 129 128 127 122 97 79 92 105 124 145 155 184 210 189 191 192 184 171 159 144 160 173 180 185 184 185 187 188 191 192 189 189 190 193 197 194 187 188 196 212
124 128 125 128 132 134 132 130 114 67 67 72 83 126 177 193 192 192 189 181 175 168 165 176 185 190 194 191 190 194 198 197 189 192 199 199 198 198 195 197 200 206 217
107 111 115 121 122 124 125 123 125 127 108 42 23 33 46 176 183 186 179 165 174 182 187 189 197 197 196 197 198 201 200 193 195 201 204 204 201 200 202 206 208 211 215
96 100 102 105 103 105 106 105 105 108 108 94 46 21 19 55 128 162 166 173 186 199 199 198 199 199 201 202 203 202 202 203 203 205 210 210 207 206 211 213 213 215 213
82 85 92 97 96 94 95 100 101 101 101 96 80 24 9 59 85 128 174 182 210 219 210 208 207 206 206 209 208 206 209 211 208 212 214 215 214 213 217 217 215 214 215
79 82 84 89 89 92 95 97 100 103 104 98 50 2 48 93 111 25 304 278 261 251 236 222 217 214 212 209 211 214 217 220 217 216 217 216 214 216 218 219 219 218 217
72 76 77 85 88 88 88 87 92 98 97 89 42 14 29 51 46 26 3 348 346 340 322 269 236 225 219 218 220 222 224 224 222 220 221 220 218 218 216 217 218 218 216
68 74 72 67 68 72 71 66 68 72 74 66 51 38 30 30 27 15 354 344 345 347 349 340 309 294 285 256 236 228 231 232 226 219 220 221 220 218 216 217 216 216 217
61 68 71 67 64 66 69 63 56 54 54 51 41 31 15 358 348 339 335 337 335 332 332 324 307 301 301 289 274 264 260 262 250 233 224 224 223 221 217 219 218 217 217
62 66 67 65 64 65 62 52 40 29 19 6 355 339 329 320 312 310 310 310 310 306 306 302 293 291 289 284 278 270 271 269 257 239 226 223 223 221 218 218 215 212 211
60 64 66 63 60 59 67 16 324 321 315 311 308 302 299 294 291 293 297 299 300 296 292 287 285 286 285 280 275 273 266 260 249 235 220 217 219 220 216 217 212 210 208